Showing default

ORBCOMM FM 114, 41179

Orbit data source: Space-Track

ORBCOMM FM 114, 41179 is a payload satellite owned by Orbcomm (US) in LEO that was launched on Tue, 22 Dec 2015 UTC via an FALCON 9 launch vehicle from the Air Force Eastern Test Range (AFETR). Payload-class satellites include a variety of spacecraft equipped with specific instruments for various scientific and technological missions. These include communications satellites like Starlink; space stations such as the ISS; scientific satellites like the Hubble; Earth observation satellites from companies like Planet Labs, Umbra, and HawkEye 360; GPS; miniature CubeSats for education and research; and military/defense satellites.

Loading next visibility...
Identifier
41179, 2015-081A
Orbit
LEO
Last TLE update
6 hours ago
Origin
Manufacturer
SNC Louisville
Mission
Operational Commercial Communications
Bus & Motor
SN-100A, Unknown motor
Mass
172 kg wet, 158 kg dry
Launch date (UTC)
2015-12-22 (10 years ago)
Launch vehicle
FALCON 9
Launch site
Air Force Eastern Test Range (AFETR)
Object type
Payload
Rocket body
Debris
Shape & HBR
Box + 1 Pan + 1 Ant, 6.5 m
Radar Cross Section
2.222 m², Medium (>0.1 m² and < 1m²)

Expand to show TLE details & history

TLE from 6 hours ago
0 ORBCOMM FM 114
1 41179U 15081A   25200.20500363  .00000359  00000-0  11349-3 0  9993
2 41179  47.0023 135.6214 0001352 146.6495 213.4476 14.58247180509199
Epoch: 2025-07-19T04:55Z
TLE epoch observation values (Epoch: 2025-07-19T04:55:12.313Z)
Latitude
-0.00002°
Longitude
124.57462°
Altitude
699.853 km
Speed
7.507 km/s
True Right ascension
09h 02m 29s
True Declination
0° 00' 00"
Sunlit
Object was in daylight at epoch
Visualization orbit readout
Latitude
-37.32033°
Longitude
-11.61424°
Altitude
710.224 km
Speed
7.501 km/s
Apparent Right ascension
01h 15m 53s
Apparent Declination
-84° 32' 24"
Sunlit
Object is in full shadow
Visualization observer readout
Local Sidereal Time
23:45:14
Azimuth
177.439° S
Elevation
-34.849°
Doppler factor
1
Orbital elements
Apogee altitude
701.031 km
Perigee altitude
699.117 km
Semi-major axis
7,078.211 km
Eccentricity
0.00014
Inclination
47.0023°
RAAN
135.6214°
Arg. of periapsis
146.6495°
True anomaly
213.43906°
Mean anomaly
213.4476°
Eccentric anomaly
213.44333°
Mean motion
3.64467 °/min
Orbital period
98.77 mins
BSTAR
0.00011349
Loading maneuver chart data...
Loading SW <> Apogee altitude chart data...
Loading historical data...
Loading historical data...
Loading historical data...
Loading historical data...
Loading historical data...
Loading historical data...
Loading historical data...
|